SL-6 R/B(2), 11909

Orbit data source: Space-Track

SL-6 R/B(2), 11909 is space debris originally from a launch on Fri, 18 Jul 1980 UTC launched from the Plesetsk Missile And Space Complex (PKMTR). Debris objects in space refer to the collection of defunct objects orbiting the Earth. Examples of debris include non-operational satellites, rocket bodies, and fragments generated from explosions, collisions, or faulty payload assembly.

Loading next visibility...
Identifier
11909, 1980-063D
Orbit
Molniya
Country
Flag of CISCIS
Related business
Manufacturer
NPO Energiya
Mission
Spacecraft
Bus & Motor
BLOK-L, Unknown motor
Mass
~900 kg wet, ~1,000 kg dry
Launch date (UTC)
1980-07-18 (46 years ago)
Launch vehicle
Unknown
Launch site
Plesetsk Missile And Space Complex (PKMTR)
Object type
Payload
Rocket body
Debris
Shape & HBR
Unknown
Radar Cross Section
Large (>1 m²)

Expand to show TLE details & history
Last TLE update: 2 weeks ago

TLE from 2 weeks ago
0 SL-6 R/B(2)
1 11909U 80063D   26159.96539954 -.00001303  00000-0  00000+0 0  9997
2 11909  63.7514  20.8900 7330524 277.5249  12.0783  1.96875876329469
Epoch: 2026-06-08T23:10Z
TLE epoch observation values (Epoch: 2026-06-08T23:10:10.520Z)
Latitude
-0.00035°
Longitude
136.06539°
Altitude
4,998.286 km
Speed
7.434 km/s
True Right ascension
01h 23m 48s
True Declination
0° 00' 01"
Sunlit
Object was in daylight at epoch
Visualization orbit readout
Latitude
Unknown
Longitude
Unknown
Altitude
Unknown
Speed
Unknown
Apparent Right ascension
Unknown
Apparent Declination
Unknown
Sunlit
N/A
Visualization observer readout
Local Sidereal Time
23:07:50
Azimuth
Unknown
Elevation
Unknown
Doppler factor
Unknown
Orbital elements
Apogee altitude
40,223.528 km
Perigee altitude
800.066 km
Semi-major axis
26,889.934 km
Eccentricity
0.73305
Inclination
63.7514°
RAAN
20.89°
Arg. of periapsis
277.5249°
True anomaly
82.28061°
Mean anomaly
12.0783°
Eccentric anomaly
37.84963°
Mean motion
0.49222 °/min
Orbital period
731.38 mins
BSTAR
0
Loading maneuver chart data...
Computing Atmospheric mass density...
Loading historical data...
Loading historical data...
Loading historical data...
Loading historical data...
Loading historical data...
Loading historical data...
Loading historical data...

Documentation

Showing up to 5 results
|